星链-30309 (STARLINK-30309 )

导读

STARLINK-30309是美国太空探索技术公司Starlink星链互联网卫星星座的一员,于2023年8月17日发射入轨。星链项目旨在构建全球卫星互联网,为全球偏远地区、海洋等网络盲区提供高速互联网接入服务,该卫星承担着拓展星座覆盖范围、提升星座网络通信能力的任务,服务全球用户的互联需求。

基本信息
目录编号:
57632
目录名称:
STARLINK-30309
国际标识:
2023-122A
轨道中心:
EARTH
卫星名称:
星链-30309
卫星全名:
星链-30309 (STARLINK-30309 )
卫星状态:
在轨 (已飞行1114 天)
发射日期:
2023-08-17 UTC
国别 :
美国 (US)
星等 :
--
轨道信息
数据来源 国际轨道数据 AOE轨道数据
星历时间 2026-09-04T10:52:25+0800
6小时前
查看轨道信息
2026-09-03T23:00:00+0800
18小时前
查看轨道信息
半长轴 6861.205km 6861.175km
偏心率 0.0001432 0.0001088
轨道倾角 43.002° 43.001°
近地点辐角 267.324° 270.398°
升交点赤经 164.989° 167.783°
平近点角 92.745° 245.832°
近地点 482.085km 482.291km
远地点 484.051km 483.785km
周期 94.267分钟 94.267分钟
每日圈数 15.275738 15.275839
详细信息
固有亮度:
5
最大亮度:
0.3
卫星平台:
Starlink v2.0 mini
覆盖范围:
全球
运营商:
太空探索技术公司
运营商所在国:
美国
制造商(研发单位):
太空探索技术公司
制造商所在国:
美国
使用方式:
暂无
卫星简介
星链(Starlink)计划是由太空探索技术公司(SpaceX)提出的一个巨型低轨卫星互联网星座项目,计划在2019年至2024年间在太空搭建由约1.2万颗卫星组成的“星链”网络,其中1584颗将部署在地球上空550千米处的近地轨道,并从2020年开始工作。该卫星仍在工作。
2D轨道图
3D轨道图
轨道高度分析图
轨道倾角分析图
轨道综合分析图
查看轨道综合分析图
交会数据列表
事件ID 空间交会对象 最接近时刻(TCA) 交会距离 交会风险概率(CRP) 交会风险指数(CRI) 操作
CDM_260905-080705-763206-399921
2026-09-05T
08:07:43+0000
0.815 km
远距离
3.404665E-5 中风险 0.66
CDM_260905-063305-763206-399921
2026-09-05T
06:33:34+0000
1.458 km
极远距离
4.710463E-6 低风险 0.48
CDM_260905-100305-320705-763221
2026-09-05T
10:03:09+0000
1.686 km
极远距离
4.43348E-6 低风险 0.48
CDM_260904-220705-763205-870122
2026-09-04T
22:07:41+0000
2.128 km
极远距离
2.05561E-6 低风险 0.41
CDM_260903-221605-763206-453123
OBJECT D (64531)
2026-09-03T
22:16:41+0000
2.512 km
极远距离
1.701103E-6 低风险 0.4
CDM_260905-033305-632105-763221
2026-09-05T
03:33:16+0000
2.368 km
极远距离
1.628985E-6 低风险 0.39
CDM_260902-233405-763206-630522
OBJECT N (66305)
2026-09-02T
23:34:59+0000
2.559 km
极远距离
1.277728E-6 低风险 0.37